QPF
0.04 0.04 0.05 0.05 0.05 0.07 0.08 0.07 0.09 0.11 0.11 0.10 0.08 0.04 0.03 0.03 0.02 0.02 0.02 0.03 0.04 0.04 0.05 0.04 0.04 0.05 0.05 0.06 0.09 0.12 0.09 0.07 0.07 0.06 0.04 0.03 0.04 0.04 0.03 0.02 0.02 0.03 0.02
0.03 0.03 0.04 0.04 0.05 0.06 0.06 0.07 0.07 0.08 0.08 0.08 0.05 0.05 0.05 0.03 0.02 0.01 0.02 0.03 0.03 0.04 0.04 0.04 0.04 0.04 0.05 0.05 0.05 0.08 0.09 0.08 0.08 0.06 0.04 0.04 0.03 0.02 0.02 0.02 0.02 0.02 0.02
0.03 0.03 0.04 0.05 0.06 0.05 0.05 0.04 0.04 0.06 0.09 0.11 0.09 0.05 0.05 0.05 0.04 0.03 0.02 0.03 0.02 0.03 0.04 0.04 0.05 0.06 0.05 0.04 0.04 0.04 0.07 0.09 0.09 0.06 0.05 0.04 0.03 0.02 0.02 0.01 0.01 0.01 0.01
0.03 0.03 0.04 0.04 0.05 0.05 0.05 0.04 0.04 0.04 0.05 0.08 0.10 0.07 0.05 0.04 0.04 0.03 0.03 0.04 0.04 0.04 0.03 0.04 0.05 0.06 0.06 0.06 0.05 0.04 0.06 0.08 0.10 0.09 0.06 0.03 0.02 0.03 0.03 0.02 0.01 0.01 0.01
0.02 0.03 0.03 0.05 0.05 0.04 0.03 0.03 0.04 0.04 0.04 0.05 0.07 0.07 0.07 0.05 0.03 0.03 0.03 0.03 0.04 0.04 0.04 0.04 0.05 0.05 0.05 0.05 0.05 0.04 0.05 0.05 0.06 0.08 0.07 0.06 0.04 0.03 0.03 0.02 0.02 0.01 0.01
0.01 0.02 0.02 0.04 0.04 0.04 0.04 0.04 0.04 0.04 0.04 0.05 0.06 0.06 0.06 0.05 0.03 0.02 0.02 0.03 0.03 0.03 0.04 0.04 0.04 0.03 0.03 0.04 0.05 0.04 0.04 0.05 0.04 0.04 0.05 0.04 0.03 0.03 0.04 0.03 0.02 0.02 0.01
0.01 0.01 0.02 0.02 0.02 0.02 0.04 0.05 0.06 0.06 0.06 0.06 0.06 0.06 0.06 0.05 0.04 0.03 0.02 0.01 0.02 0.02 0.03 0.04 0.04 0.03 0.03 0.03 0.04 0.05 0.06 0.07 0.05 0.04 0.05 0.05 0.04 0.03 0.02 0.02 0.02 0.02 0.01
0.01 0.02 0.02 0.01 0.01 0.02 0.02 0.04 0.06 0.08 0.08 0.07 0.07 0.06 0.05 0.04 0.04 0.04 0.03 0.02 0.02 0.02 0.02 0.02 0.02 0.02 0.03 0.03 0.04 0.03 0.04 0.05 0.04 0.04 0.05 0.05 0.04 0.03 0.02 0.02 0.03 0.02 0.02
0.01 0.01 0.01 0.01 0.02 0.02 0.03 0.03 0.05 0.06 0.06 0.06 0.06 0.06 0.06 0.06 0.05 0.06 0.05 0.03 0.03 0.02 0.02 0.02 0.02 0.03 0.03 0.03 0.05 0.05 0.04 0.04 0.02 0.02 0.02 0.03 0.03 0.03 0.03 0.03 0.03 0.03 0.03
0.01 0.01 0.01 0.01 0.02 0.03 0.05 0.05 0.04 0.06 0.06 0.05 0.05 0.05 0.05 0.05 0.05 0.05 0.05 0.03 0.02 0.02 0.02 0.02 0.03 0.03 0.02 0.03 0.05 0.06 0.05 0.05 0.03 0.02 0.02 0.02 0.04 0.05 0.05 0.04 0.04 0.04 0.04
0.02 0.03 0.02 0.02 0.03 0.04 0.04 0.05 0.06 0.05 0.05 0.05 0.05 0.04 0.04 0.04 0.05 0.05 0.05 0.03 0.02 0.03 0.03 0.02 0.03 0.03 0.03 0.02 0.03 0.04 0.05 0.05 0.04 0.03 0.03 0.02 0.03 0.06 0.06 0.06 0.06 0.05 0.05
0.05 0.04 0.03 0.01 0.02 0.02 0.03 0.04 0.07 0.07 0.06 0.05 0.04 0.04 0.04 0.05 0.05 0.04 0.04 0.03 0.02 0.02 0.03 0.03 0.03 0.03 0.03 0.03 0.03 0.03 0.03 0.03 0.03 0.03 0.03 0.02 0.03 0.04 0.05 0.06 0.06 0.06 0.05
0.05 0.04 0.03 0.02 0.02 0.02 0.02 0.02 0.07 0.09 0.07 0.06 0.05 0.04 0.04 0.04 0.04 0.03 0.04 0.04 0.03 0.03 0.03 0.04 0.04 0.04 0.04 0.03 0.03 0.03 0.03 0.03 0.04 0.04 0.04 0.04 0.04 0.03 0.03 0.04 0.05 0.06 0.06
0.06 0.06 0.04 0.03 0.03 0.02 0.02 0.02 0.05 0.11 0.10 0.08 0.07 0.05 0.03 0.03 0.04 0.04 0.04 0.04 0.05 0.04 0.03 0.03 0.04 0.03 0.04 0.03 0.03 0.03 0.04 0.06 0.06 0.05 0.06 0.06 0.06 0.05 0.05 0.05 0.05 0.05 0.06
0.07 0.06 0.04 0.02 0.01 0.02 0.02 0.04 0.09 0.13 0.14 0.11 0.08 0.06 0.05 0.05 0.04 0.04 0.04 0.04 0.05 0.04 0.03 0.03 0.02 0.02 0.02 0.02 0.03 0.04 0.06 0.07 0.06 0.07 0.07 0.08 0.08 0.08 0.08 0.07 0.06 0.06 0.05
0.03 0.03 0.02 0.02 0.02 0.02 0.02 0.04 0.10 0.14 0.14 0.14 0.11 0.08 0.07 0.07 0.05 0.04 0.03 0.04 0.04 0.03 0.02 0.02 0.02 0.01 0.01 0.02 0.04 0.06 0.06 0.06 0.05 0.04 0.04 0.05 0.05 0.06 0.06 0.05 0.05 0.04 0.04
0.02 0.02 0.02 0.03 0.03 0.02 0.03 0.04 0.06 0.10 0.12 0.13 0.13 0.11 0.09 0.08 0.06 0.05 0.04 0.04 0.04 0.03 0.02 0.02 0.01 0.01 0.01 0.03 0.05 0.08 0.07 0.05 0.04 0.05 0.05 0.05 0.04 0.04 0.04 0.04 0.05 0.05 0.04
0.02 0.02 0.02 0.02 0.02 0.02 0.03 0.04 0.05 0.07 0.08 0.10 0.12 0.13 0.12 0.09 0.07 0.06 0.05 0.05 0.03 0.03 0.04 0.03 0.03 0.02 0.02 0.03 0.05 0.08 0.07 0.05 0.04 0.03 0.04 0.04 0.04 0.06 0.06 0.06 0.05 0.04 0.04
0.02 0.02 0.02 0.03 0.02 0.02 0.03 0.03 0.05 0.05 0.05 0.07 0.10 0.12 0.12 0.09 0.07 0.06 0.05 0.04 0.03 0.02 0.02 0.01 0.02 0.02 0.02 0.03 0.04 0.05 0.04 0.03 0.02 0.01 0.02 0.02 0.03 0.04 0.06 0.05 0.05 0.05 0.05
0.01 0.01 0.02 0.02 0.02 0.02 0.03 0.03 0.04 0.04 0.05 0.06 0.08 0.09 0.08 0.08 0.07 0.04 0.03 0.03 0.03 0.03 0.02 0.02 0.01 0.02 0.02 0.03 0.03 0.03 0.02 0.01 0.01 0.01 0.01 0.02 0.03 0.05 0.06 0.05 0.05 0.05 0.05
0.02 0.02 0.03 0.04 0.04 0.03 0.03 0.03 0.03 0.03 0.04 0.05 0.05 0.05 0.05 0.05 0.06 0.05 0.04 0.02 0.02 0.02 0.02 0.02 0.02 0.02 0.02 0.03 0.02 0.02 0.01 0.01 0.01 0.01 0.01 0.02 0.03 0.04 0.05 0.04 0.04 0.04 0.04
0.02 0.02 0.02 0.05 0.06 0.05 0.05 0.04 0.03 0.03 0.04 0.04 0.04 0.04 0.03 0.03 0.03 0.04 0.04 0.03 0.02 0.02 0.02 0.02 0.02 0.03 0.04 0.02 0.01 0.01 0.01 0.01 0.01 0.01 0.01 0.02 0.02 0.02 0.03 0.03 0.03 0.04 0.04
0.04 0.04 0.04 0.05 0.06 0.06 0.08 0.07 0.05 0.05 0.05 0.04 0.04 0.04 0.03 0.03 0.03 0.03 0.03 0.03 0.03 0.03 0.01 0.01 0.01 0.02 0.03 0.03 0.03 0.02 0.02 0.01 0.01 0.01 0.01 0.01 0.02 0.01 0.01 0.02 0.02 0.03 0.04
0.04 0.05 0.04 0.04 0.05 0.06 0.07 0.09 0.09 0.07 0.05 0.04 0.03 0.03 0.03 0.03 0.03 0.03 0.03 0.03 0.02 0.02 0.01 0.01 0.01 0.01 0.01 0.02 0.03 0.03 0.03 0.02 0.02 0.01 0.01 0.01 0.02 0.02 0.02 0.02 0.02 0.02 0.03
0.04 0.04 0.04 0.04 0.05 0.05 0.04 0.05 0.07 0.10 0.07 0.05 0.04 0.03 0.04 0.04 0.04 0.03 0.03 0.03 0.03 0.02 0.01 0.02 0.02 0.01 0.01 0.01 0.02 0.02 0.02 0.02 0.02 0.02 0.01 0.01 0.01 0.02 0.02 0.02 0.02 0.02 0.03
0.04 0.03 0.03 0.04 0.05 0.04 0.02 0.02 0.03 0.07 0.09 0.08 0.05 0.03 0.03 0.04 0.03 0.03 0.02 0.02 0.02 0.02 0.01 0.01 0.02 0.01 0.01 0.01 0.02 0.02 0.02 0.01 0.02 0.02 0.02 0.02 0.01 0.02 0.03 0.04 0.03 0.02 0.02
MSLP
1006.97 1007.54 1008.04 1008.41 1008.62 1008.66 1008.59 1008.49 1008.43 1008.49 1008.71 1009.09 1009.59 1010.13 1010.62 1011.00 1011.20 1011.21 1011.06 1010.82 1010.58 1010.43 1010.46 1010.72 1011.22 1011.93 1012.82 1013.81 1014.84 1015.85 1016.80 1017.68 1018.48 1019.21 1019.88 1020.49 1021.05 1021.53 1021.92 1022.21 1022.40 1022.50 1022.54
1007.15 1007.76 1008.30 1008.68 1008.88 1008.91 1008.81 1008.68 1008.61 1008.67 1008.92 1009.33 1009.89 1010.50 1011.08 1011.55 1011.85 1011.98 1011.96 1011.86 1011.75 1011.71 1011.82 1012.13 1012.62 1013.28 1014.05 1014.89 1015.74 1016.56 1017.34 1018.07 1018.76 1019.43 1020.09 1020.73 1021.32 1021.86 1022.31 1022.66 1022.89 1023.01 1023.05
1007.09 1007.75 1008.34 1008.77 1009.00 1009.06 1008.98 1008.86 1008.80 1008.88 1009.14 1009.59 1010.18 1010.83 1011.48 1012.02 1012.42 1012.66 1012.77 1012.80 1012.82 1012.91 1013.11 1013.45 1013.93 1014.53 1015.19 1015.87 1016.53 1017.16 1017.76 1018.34 1018.92 1019.53 1020.16 1020.81 1021.45 1022.05 1022.56 1022.97 1023.26 1023.42 1023.49
1006.74 1007.46 1008.11 1008.63 1008.94 1009.07 1009.06 1009.00 1008.98 1009.09 1009.38 1009.85 1010.45 1011.13 1011.81 1012.41 1012.88 1013.22 1013.44 1013.59 1013.73 1013.92 1014.20 1014.59 1015.06 1015.60 1016.15 1016.69 1017.18 1017.64 1018.08 1018.52 1019.00 1019.54 1020.14 1020.79 1021.46 1022.10 1022.68 1023.14 1023.48 1023.70 1023.81
1006.14 1006.91 1007.65 1008.27 1008.70 1008.95 1009.05 1009.08 1009.14 1009.30 1009.62 1010.10 1010.71 1011.40 1012.08 1012.71 1013.23 1013.63 1013.94 1014.20 1014.45 1014.73 1015.08 1015.49 1015.96 1016.44 1016.91 1017.33 1017.70 1018.02 1018.32 1018.64 1019.03 1019.50 1020.06 1020.70 1021.37 1022.04 1022.65 1023.16 1023.55 1023.81 1023.96
1005.39 1006.20 1007.03 1007.76 1008.33 1008.71 1008.94 1009.10 1009.25 1009.48 1009.84 1010.34 1010.95 1011.62 1012.30 1012.93 1013.48 1013.93 1014.31 1014.64 1014.97 1015.32 1015.72 1016.16 1016.62 1017.07 1017.47 1017.81 1018.08 1018.30 1018.50 1018.73 1019.04 1019.45 1019.96 1020.56 1021.22 1021.88 1022.50 1023.03 1023.45 1023.75 1023.95
1004.63 1005.46 1006.36 1007.19 1007.89 1008.41 1008.79 1009.07 1009.33 1009.64 1010.04 1010.55 1011.15 1011.81 1012.48 1013.11 1013.66 1014.14 1014.56 1014.95 1015.33 1015.73 1016.17 1016.62 1017.08 1017.50 1017.86 1018.14 1018.35 1018.50 1018.64 1018.81 1019.06 1019.41 1019.86 1020.42 1021.03 1021.66 1022.26 1022.79 1023.22 1023.55 1023.77
1004.00 1004.83 1005.76 1006.66 1007.46 1008.10 1008.60 1009.00 1009.36 1009.74 1010.19 1010.72 1011.33 1011.97 1012.62 1013.24 1013.80 1014.30 1014.74 1015.16 1015.58 1016.01 1016.46 1016.92 1017.37 1017.77 1018.11 1018.36 1018.54 1018.66 1018.76 1018.90 1019.10 1019.39 1019.79 1020.28 1020.83 1021.41 1021.96 1022.47 1022.89 1023.23 1023.50
1003.59 1004.39 1005.31 1006.24 1007.09 1007.81 1008.41 1008.90 1009.34 1009.79 1010.28 1010.84 1011.45 1012.09 1012.73 1013.34 1013.91 1014.41 1014.88 1015.32 1015.75 1016.20 1016.65 1017.11 1017.54 1017.93 1018.25 1018.50 1018.66 1018.78 1018.88 1018.99 1019.17 1019.42 1019.76 1020.18 1020.66 1021.16 1021.67 1022.13 1022.54 1022.89 1023.17
1003.45 1004.18 1005.05 1005.96 1006.81 1007.56 1008.20 1008.75 1009.25 1009.76 1010.29 1010.87 1011.50 1012.14 1012.79 1013.40 1013.98 1014.50 1014.98 1015.43 1015.87 1016.32 1016.77 1017.21 1017.63 1018.01 1018.32 1018.57 1018.75 1018.88 1018.98 1019.10 1019.26 1019.48 1019.78 1020.13 1020.54 1020.98 1021.42 1021.84 1022.23 1022.57 1022.88
1003.54 1004.17 1004.95 1005.77 1006.57 1007.30 1007.94 1008.52 1009.07 1009.61 1010.18 1010.80 1011.44 1012.11 1012.77 1013.40 1013.99 1014.52 1015.02 1015.48 1015.93 1016.37 1016.81 1017.24 1017.65 1018.01 1018.33 1018.58 1018.78 1018.94 1019.08 1019.22 1019.38 1019.59 1019.85 1020.16 1020.51 1020.89 1021.27 1021.64 1022.00 1022.34 1022.66
1003.75 1004.25 1004.90 1005.61 1006.31 1006.98 1007.60 1008.18 1008.75 1009.33 1009.94 1010.59 1011.26 1011.96 1012.64 1013.29 1013.90 1014.46 1014.97 1015.45 1015.90 1016.34 1016.77 1017.18 1017.58 1017.94 1018.26 1018.54 1018.77 1018.97 1019.14 1019.32 1019.51 1019.72 1019.97 1020.25 1020.56 1020.89 1021.22 1021.56 1021.89 1022.21 1022.53
1003.94 1004.31 1004.81 1005.37 1005.96 1006.55 1007.12 1007.70 1008.28 1008.89 1009.54 1010.23 1010.95 1011.67 1012.38 1013.06 1013.69 1014.27 1014.80 1015.29 1015.75 1016.19 1016.61 1017.02 1017.41 1017.78 1018.12 1018.42 1018.68 1018.93 1019.15 1019.37 1019.60 1019.84 1020.10 1020.37 1020.65 1020.95 1021.25 1021.55 1021.85 1022.15 1022.45
1004.00 1004.22 1004.57 1004.99 1005.46 1005.96 1006.50 1007.06 1007.67 1008.31 1009.01 1009.74 1010.49 1011.25 1011.98 1012.68 1013.33 1013.93 1014.48 1014.99 1015.46 1015.91 1016.34 1016.75 1017.15 1017.52 1017.88 1018.21 1018.51 1018.80 1019.08 1019.35 1019.62 1019.90 1020.18 1020.46 1020.74 1021.02 1021.29 1021.56 1021.83 1022.11 1022.39
1003.86 1003.94 1004.14 1004.42 1004.79 1005.23 1005.73 1006.30 1006.93 1007.63 1008.37 1009.14 1009.93 1010.71 1011.47 1012.18 1012.85 1013.46 1014.02 1014.55 1015.04 1015.50 1015.95 1016.37 1016.78 1017.17 1017.55 1017.90 1018.25 1018.58 1018.90 1019.22 1019.54 1019.86 1020.17 1020.47 1020.75 1021.03 1021.29 1021.54 1021.78 1022.03 1022.27
1003.51 1003.46 1003.53 1003.71 1003.99 1004.39 1004.88 1005.47 1006.15 1006.89 1007.68 1008.49 1009.31 1010.11 1010.87 1011.59 1012.26 1012.88 1013.46 1014.00 1014.51 1015.00 1015.46 1015.91 1016.34 1016.75 1017.14 1017.52 1017.89 1018.25 1018.61 1018.97 1019.33 1019.68 1020.02 1020.35 1020.65 1020.93 1021.19 1021.42 1021.65 1021.86 1022.08
1003.01 1002.85 1002.81 1002.91 1003.15 1003.52 1004.03 1004.65 1005.37 1006.16 1007.00 1007.84 1008.67 1009.48 1010.24 1010.95 1011.62 1012.24 1012.83 1013.39 1013.92 1014.44 1014.93 1015.40 1015.85 1016.27 1016.68 1017.08 1017.46 1017.84 1018.22 1018.60 1018.99 1019.36 1019.73 1020.08 1020.41 1020.70 1020.96 1021.20 1021.41 1021.60 1021.79
1002.45 1002.20 1002.09 1002.14 1002.35 1002.73 1003.26 1003.92 1004.69 1005.52 1006.37 1007.23 1008.07 1008.86 1009.61 1010.31 1010.96 1011.58 1012.18 1012.76 1013.32 1013.86 1014.38 1014.88 1015.35 1015.79 1016.21 1016.60 1016.99 1017.37 1017.75 1018.14 1018.54 1018.93 1019.32 1019.70 1020.04 1020.35 1020.63 1020.87 1021.08 1021.27 1021.44
1001.96 1001.65 1001.49 1001.51 1001.71 1002.10 1002.66 1003.35 1004.14 1004.99 1005.85 1006.71 1007.52 1008.29 1009.01 1009.68 1010.32 1010.94 1011.54 1012.14 1012.73 1013.30 1013.86 1014.38 1014.87 1015.32 1015.74 1016.13 1016.51 1016.88 1017.26 1017.65 1018.04 1018.45 1018.85 1019.24 1019.61 1019.95 1020.24 1020.51 1020.73 1020.92 1021.09
1001.61 1001.26 1001.09 1001.10 1001.31 1001.71 1002.28 1002.98 1003.77 1004.60 1005.45 1006.27 1007.04 1007.77 1008.45 1009.09 1009.71 1010.32 1010.93 1011.55 1012.16 1012.77 1013.35 1013.90 1014.41 1014.88 1015.30 1015.70 1016.06 1016.43 1016.79 1017.17 1017.56 1017.97 1018.38 1018.79 1019.18 1019.54 1019.87 1020.15 1020.40 1020.61 1020.79
1001.46 1001.11 1000.94 1000.96 1001.17 1001.58 1002.14 1002.82 1003.58 1004.37 1005.16 1005.92 1006.63 1007.30 1007.93 1008.53 1009.13 1009.73 1010.35 1010.98 1011.61 1012.25 1012.86 1013.44 1013.98 1014.46 1014.90 1015.29 1015.66 1016.02 1016.38 1016.76 1017.15 1017.55 1017.97 1018.39 1018.80 1019.19 1019.54 1019.85 1020.12 1020.35 1020.55
1001.52 1001.21 1001.06 1001.10 1001.32 1001.70 1002.23 1002.87 1003.56 1004.28 1004.99 1005.66 1006.29 1006.89 1007.45 1008.01 1008.57 1009.16 1009.77 1010.41 1011.06 1011.72 1012.36 1012.97 1013.54 1014.05 1014.51 1014.93 1015.31 1015.69 1016.05 1016.43 1016.83 1017.24 1017.66 1018.09 1018.50 1018.90 1019.27 1019.60 1019.89 1020.13 1020.35
1001.77 1001.53 1001.43 1001.49 1001.71 1002.08 1002.56 1003.12 1003.72 1004.34 1004.94 1005.51 1006.04 1006.55 1007.04 1007.54 1008.06 1008.61 1009.21 1009.84 1010.50 1011.17 1011.84 1012.47 1013.07 1013.62 1014.12 1014.58 1015.00 1015.40 1015.80 1016.19 1016.60 1017.01 1017.43 1017.85 1018.27 1018.66 1019.03 1019.36 1019.65 1019.91 1020.13
1002.19 1002.04 1002.01 1002.11 1002.34 1002.67 1003.09 1003.57 1004.06 1004.56 1005.04 1005.48 1005.91 1006.31 1006.72 1007.15 1007.61 1008.12 1008.68 1009.29 1009.94 1010.61 1011.28 1011.94 1012.57 1013.16 1013.71 1014.22 1014.70 1015.15 1015.58 1016.00 1016.42 1016.83 1017.24 1017.64 1018.03 1018.40 1018.74 1019.06 1019.34 1019.60 1019.82
1002.75 1002.71 1002.77 1002.92 1003.16 1003.47 1003.82 1004.20 1004.59 1004.96 1005.31 1005.63 1005.94 1006.24 1006.55 1006.88 1007.27 1007.71 1008.22 1008.78 1009.40 1010.05 1010.71 1011.38 1012.04 1012.67 1013.27 1013.84 1014.37 1014.87 1015.34 1015.79 1016.22 1016.62 1017.01 1017.37 1017.72 1018.04 1018.34 1018.61 1018.87 1019.11 1019.33
1003.43 1003.53 1003.68 1003.89 1004.14 1004.43 1004.73 1005.02 1005.30 1005.56 1005.78 1005.98 1006.17 1006.36 1006.56 1006.80 1007.10 1007.46 1007.88 1008.37 1008.93 1009.53 1010.17 1010.83 1011.49 1012.15 1012.79 1013.40 1013.99 1014.53 1015.04 1015.50 1015.93 1016.31 1016.65 1016.96 1017.24 1017.50 1017.73 1017.96 1018.17 1018.38 1018.59
Thickness
5760 5761 5760 5760 5757 5753 5751 5749 5746 5743 5740 5737 5734 5731 5728 5727 5726 5725 5724 5723 5722 5720 5719 5717 5715 5714 5712 5711 5709 5707 5706 5704 5704 5702 5700 5701 5703 5704 5705 5706 5706 5706 5706
5753 5754 5754 5753 5752 5750 5747 5745 5743 5740 5738 5735 5733 5731 5728 5725 5724 5722 5721 5720 5718 5717 5716 5715 5713 5712 5710 5708 5706 5705 5702 5701 5700 5698 5694 5692 5694 5699 5702 5702 5703 5703 5703
5749 5748 5748 5747 5746 5744 5743 5742 5740 5738 5736 5733 5729 5727 5724 5721 5718 5718 5716 5716 5715 5714 5713 5712 5710 5709 5708 5705 5704 5703 5701 5697 5697 5697 5694 5689 5687 5690 5695 5697 5699 5700 5699
5744 5743 5743 5742 5741 5740 5739 5738 5736 5735 5733 5731 5726 5724 5721 5718 5717 5716 5714 5713 5712 5710 5709 5708 5707 5706 5705 5703 5702 5701 5700 5697 5694 5693 5693 5693 5692 5688 5687 5691 5694 5696 5696
5739 5738 5738 5738 5737 5736 5734 5733 5731 5730 5728 5726 5724 5721 5718 5716 5715 5714 5711 5710 5708 5707 5706 5705 5703 5703 5701 5700 5699 5698 5697 5696 5694 5692 5690 5689 5688 5688 5686 5685 5687 5690 5692
5735 5734 5734 5733 5731 5730 5729 5728 5725 5724 5724 5723 5720 5718 5716 5714 5711 5710 5708 5706 5704 5704 5703 5702 5700 5699 5698 5697 5696 5695 5694 5693 5692 5691 5690 5688 5687 5685 5684 5683 5683 5684 5687
5728 5728 5728 5727 5725 5724 5723 5722 5720 5719 5719 5718 5717 5716 5714 5712 5710 5708 5705 5703 5701 5700 5699 5698 5696 5695 5695 5694 5693 5692 5690 5689 5689 5688 5688 5688 5687 5686 5684 5682 5680 5680 5682
5723 5723 5723 5722 5720 5719 5718 5717 5716 5715 5715 5714 5713 5712 5711 5709 5707 5705 5703 5701 5699 5697 5696 5694 5693 5692 5691 5690 5689 5688 5687 5686 5686 5685 5685 5684 5684 5684 5684 5682 5679 5677 5677
5717 5718 5717 5716 5714 5713 5712 5712 5711 5710 5710 5710 5709 5708 5706 5704 5702 5701 5699 5697 5695 5694 5692 5691 5689 5688 5687 5686 5685 5684 5683 5683 5682 5682 5681 5681 5681 5681 5681 5681 5679 5676 5673
5710 5710 5710 5710 5709 5708 5707 5707 5707 5706 5705 5705 5704 5703 5701 5699 5697 5695 5693 5692 5690 5689 5687 5686 5685 5683 5682 5682 5681 5680 5680 5679 5678 5678 5677 5677 5677 5678 5678 5677 5677 5676 5673
5703 5703 5703 5703 5703 5703 5702 5701 5701 5700 5700 5699 5698 5697 5695 5693 5691 5689 5688 5687 5685 5684 5682 5681 5680 5679 5677 5677 5676 5676 5675 5674 5674 5674 5674 5673 5673 5673 5674 5673 5672 5671 5670
5696 5696 5696 5696 5696 5696 5696 5696 5696 5695 5694 5694 5693 5691 5689 5687 5685 5683 5682 5682 5680 5679 5677 5676 5675 5674 5673 5672 5672 5671 5671 5670 5670 5670 5669 5669 5669 5669 5669 5668 5668 5668 5667
5689 5689 5689 5689 5689 5689 5690 5690 5690 5690 5689 5688 5686 5684 5682 5681 5679 5678 5677 5676 5675 5673 5672 5671 5670 5669 5669 5668 5667 5666 5666 5666 5666 5665 5665 5665 5664 5664 5664 5664 5664 5664 5663
5681 5680 5681 5681 5682 5683 5683 5684 5684 5684 5684 5683 5681 5678 5677 5676 5674 5672 5671 5670 5669 5668 5667 5666 5665 5665 5664 5663 5662 5661 5661 5661 5660 5661 5661 5661 5660 5660 5660 5660 5659 5659 5658
5673 5673 5673 5673 5675 5676 5676 5677 5677 5677 5677 5676 5675 5673 5672 5670 5668 5666 5665 5664 5663 5662 5662 5661 5660 5660 5659 5659 5657 5656 5656 5655 5655 5656 5656 5656 5657 5657 5656 5656 5655 5654 5653
5667 5667 5667 5668 5668 5669 5669 5670 5670 5670 5670 5669 5668 5667 5665 5664 5662 5661 5659 5658 5657 5657 5656 5655 5654 5654 5654 5653 5652 5652 5651 5651 5650 5650 5650 5651 5652 5652 5652 5653 5652 5652 5650
5661 5661 5661 5661 5663 5664 5663 5663 5663 5663 5663 5662 5661 5660 5659 5657 5655 5655 5653 5652 5652 5651 5651 5650 5649 5648 5648 5648 5648 5647 5646 5645 5645 5645 5645 5646 5647 5647 5647 5648 5647 5647 5647
5654 5655 5655 5655 5656 5657 5658 5658 5657 5656 5656 5654 5653 5653 5652 5651 5650 5648 5647 5647 5646 5646 5645 5645 5645 5644 5644 5643 5642 5641 5641 5640 5640 5641 5641 5641 5642 5642 5642 5642 5642 5642 5643
5649 5650 5651 5651 5650 5650 5651 5651 5650 5649 5648 5647 5647 5647 5646 5645 5643 5642 5642 5642 5642 5641 5640 5640 5639 5638 5638 5638 5637 5636 5635 5635 5635 5636 5637 5637 5637 5637 5637 5637 5637 5638 5639
5643 5643 5644 5644 5644 5643 5644 5642 5642 5641 5641 5641 5641 5640 5640 5638 5638 5637 5636 5636 5636 5635 5635 5634 5634 5633 5633 5632 5631 5631 5630 5630 5630 5631 5631 5631 5631 5631 5631 5631 5631 5631 5633
5635 5636 5636 5636 5636 5636 5636 5634 5634 5634 5635 5635 5634 5634 5634 5633 5633 5632 5630 5630 5630 5629 5628 5628 5627 5627 5627 5627 5626 5625 5625 5625 5624 5625 5625 5626 5625 5625 5625 5626 5626 5627 5627
5627 5627 5627 5626 5627 5628 5628 5627 5627 5628 5629 5628 5628 5628 5627 5628 5628 5626 5624 5624 5623 5621 5620 5620 5620 5620 5621 5620 5619 5619 5619 5619 5618 5619 5620 5620 5619 5619 5619 5620 5621 5621 5620
5619 5619 5618 5618 5618 5620 5620 5620 5621 5622 5622 5621 5621 5621 5621 5620 5620 5619 5618 5616 5615 5615 5614 5613 5613 5614 5614 5614 5613 5612 5613 5612 5612 5613 5613 5613 5613 5613 5614 5614 5615 5615 5615
5611 5611 5610 5610 5610 5612 5612 5613 5615 5615 5615 5614 5615 5615 5614 5614 5613 5612 5612 5611 5610 5608 5608 5607 5607 5607 5607 5607 5606 5606 5605 5605 5605 5605 5605 5605 5605 5605 5606 5607 5607 5608 5609
5603 5603 5603 5602 5603 5604 5605 5606 5608 5609 5608 5608 5608 5608 5608 5607 5607 5606 5606 5606 5605 5604 5603 5603 5601 5600 5601 5601 5600 5599 5598 5598 5597 5596 5596 5596 5597 5597 5598 5599 5600 5601 5601
5596 5595 5595 5596 5596 5597 5597 5599 5601 5602 5602 5602 5601 5602 5602 5602 5601 5600 5599 5599 5599 5599 5598 5597 5595 5594 5593 5593 5592 5591 5590 5589 5588 5587 5588 5588 5589 5589 5590 5591 5592 5593 5594